Starlink 30563

operational
NORAD ID: 58042 Int'l Des: 2023-156 Owner: SPXS Country: US Constellation: starlink
LEOCIRCULAR

Über Starlink 30563

Beschreibung wird geladen...

Live-Position

3D-Globus wird geladen...

Nächste Überflüge

Höhenverlauf

Altitude vs Time

uPlot chart will show altitude changes over time

Zweizeiliger Elementsatz

1 58042U 23156Q 25259.12330255 -.00002693 00000-0 -78860-4 0 9995
2 58042 53.1591 166.6029 0001561 80.7270 279.3907 15.30188471109625
Epoch: 16. Sept. 2025 • Age: 8 hours

Aktueller Status

Höhe 477.0 km
Geschwindigkeit 7.63 km/s
Subsatellitenpunkt -5.62°S, 3.75°E
Startdatum 9. Okt. 2023
Alter 1.9 years
Typ internet

Technische Details

Klassifizierung Payload
Masse 730.00 kg
Trockenmasse 700.00 kg
Gesamtmasse 730.00 kg
Länge 0.30 m
Durchmesser 4.10 m
Spannweite 29.00 m
Form Box + pan
Hersteller SPXS
Bus-Typ Starlink V2M
Phasenstatus In Orbit
Besitzer/Staat SPXS/US

Große Konstellationen

Loading constellations...